Tracking 31027 objects as of 19-Jul-2025
HD Live streaming from Space Station
objects crossing your sky now

SL-14 DEB

Track SL-14 DEB now!
10-day predictions


NORAD ID: 17271
Int'l Code: 1986-101F
Perigee: 873.3 km
Apogee: 914.0 km
Inclination: 82.4 °
Period: 102.7 minutes
Semi major axis: 7264 km
RCS: 0.0119 m2 (small)
Launch date: December 18, 1986
Source: Commonwealth of Independent States (former USSR) (CIS)
Launch site: PLESETSK MISSILE AND SPACE COMPLEX (PKMTR)

Note: This is SATELLITE DEBRIS
Your satellite tracking list
STARLINK-5129
Track 1 satellite(s)




NASA's NSSDC Master Catalog

Two Line Element Set (TLE):
1 17271U 86101F   25199.81641495  .00000448  00000-0  28251-3 0  9995
2 17271  82.4082 137.5394 0027990  18.8032  10.6115 14.02112576965200
Source of the keplerian elements: AFSPC